Regional Weather Roundup
Issued by NWS

Home | Current Version | Previous Version | Text Only | Print | Product List | Glossary On
Versions: 1 2 3 4 5 6 7 8 9 10 11 12 13 14 15 16 17 18 19 20 21 22 23 24 25 26 27 28 29 30 31 32 33 34 35 36 37 38 39 40 41 42 43 44 45 46 47 48 49 50
000
ASUS45 KBOU 060207
RWRCO

WEATHER ROUNDUP FOR COLORADO
NATIONAL WEATHER SERVICE DENVER/BOULDER CO
800 PM MDT TUE MAY 05 2015

NOTE: "FAIR" INDICATES FEW OR NO CLOUDS BELOW 12000 FEET WITH NO
SIGNIFICANT WEATHER AND/OR OBSTRUCTIONS TO VISIBILITY.

COZ001>005-013-030-031-060300-
...NORTHWEST COLORADO...

CITY           SKY/WX    TMP DP  RH WIND       PRES   REMARKS
CRAIG          CLOUDY    53  45  74 W8        29.79R
HAYDEN         CLOUDY    50  43  76 SE10      29.81R
MEEKER         CLOUDY    54  45  71 W8        29.81R
MOUNT WERNER   NOT AVBL
STEAMBOAT SPGS CLOUDY    49  41  73 S5G10     29.81R
WALDEN         CLOUDY    43  39  87 SW5       29.86S
$$

COZ006>008-011-060300-
...WEST CENTRAL VALLEYS...

CITY           SKY/WX    TMP DP  RH WIND       PRES   REMARKS
GRAND JUNCTION CLOUDY    54  50  86 S3        29.79R
MONTROSE       CLOUDY    55  46  71 S6        29.84R
EAGLE          CLOUDY    50  46  87 W10       29.85R
RIFLE          RAIN      53  48  83 S7        29.80R
DELTA          CLOUDY    56  51  81 CALM      29.82R
NUCLA          CLOUDY    52  46  82 CALM      29.88S
$$

COZ017>023-064>068-060300-
...SOUTHWEST COLORADO...

CITY           SKY/WX    TMP DP  RH WIND       PRES   REMARKS
DURANGO        CLOUDY    48  45  89 SW9       29.90R
CORTEZ         CLOUDY    52  47  83 VRB5      29.87R
PAGOSA SPRINGS RAIN      44  44  98 CALM      29.94R
TELLURIDE      CLOUDY    41  41 100 CALM      29.97R
WOLF CREEK PAS NOT AVBL
$$

COZ009-010-012-014-032>034-037-058>063-060300-
...CENTRAL COLORADO...

CITY           SKY/WX    TMP DP  RH WIND       PRES   REMARKS
ASPEN          RAIN      43  40  89 N3        29.88R
BUENA VISTA    NOT AVBL
COPPER MTN       N/A     37  34  87 W6        30.02R
BERTHOUD PASS  HAZE      28  21  74 E6        30.04F VSB<1/4 WCI  22
COTTONWOOD PAS RAIN      41  37  87 E3        29.94S VSB<1/4
GUNNISON       CLOUDY    45  39  81 W5        29.91S
KREMMLING      DRIZZLE   52  43  71 CALM      29.84R
LEADVILLE      LGT RAIN  37  36  96 CALM      29.92S
MONARCH PASS   HVY SNOW  30  30 100 MISG      30.11S VSB<1/4
SALIDA         CLOUDY    46  44  92 NW3       29.95S
SUNLIGHT       SNOW      36  36 100 CALM      30.01S VSB 1/2
WILKERSON PASS SNOW      32  32 100 CALM      30.01R VSB 1/4
$$

COZ069>075-060300-
...SAN LUIS VALLEY/SANGRE DE CRISTO MOUNTAINS...

CITY           SKY/WX    TMP DP  RH WIND       PRES   REMARKS
ALAMOSA        CLOUDY    47  41  80 E5        29.87S
LA VETA PASS   MOCLDY   N/A N/A N/A MISG      29.95S
SAGUACHE       RAIN      43  41  93 CALM      29.90S
$$

COZ035-036-038>040-060300-
...NORTHERN COLORADO FRONT RANGE...

CITY           SKY/WX    TMP DP  RH WIND       PRES   REMARKS
DENVER INTL AP LGT RAIN  50  48  93 N10       29.79F
DMNS CITY PARK   N/A     50  49  95 N7        29.80S
AURORA         LGT RAIN  49  49 100 N7        29.81F
FRONT RANGE AP LGT RAIN  52  50  93 N9        29.80F
ERIE MUNI ARPT CLOUDY    52  50  93 NE5       29.80F
BOULDER MUN AP CLOUDY    52  50  93 NE6       29.80F
CENTENNIAL     LGT RAIN  49  47  93 W6        29.81S
BROOMFIELD     CLOUDY    50  50 100 NE7       29.82S FOG
FORT COLLINS   CLOUDY    52  48  87 NE7       29.83S
LONGMONT       CLOUDY    54  51  90 NE5       29.83S
$$

COZ041-046-047-076>085-087-088-060300-
...PIKES PEAK/PALMER DIVIDE AND SOUTHERN FOOTHILLS...

CITY           SKY/WX    TMP DP  RH WIND       PRES   REMARKS
COLO. SPRINGS  CLOUDY    48  44  86 NW9       29.82S
A. F. ACADEMY  DRIZZLE   46  46  99 N5        29.82F
ELLICOTT       CLOUDY   N/A N/A N/A N6        29.79F
FALCON         CLOUDY    46  43  91 NW8       29.84S
FORT CARSON    CLOUDY    48  45  87 N9        29.79F
LIMON          LGT RAIN  50  49  96 W17       29.74R FOG
MONUMENT HILL  DRIZZLE   43  41  93 W8        29.83S
TRINIDAD       MOCLDY    52  47  83 CALM      29.81S
$$

COZ042>045-048>051-090-091-060300-
...NORTHEAST COLORADO...

CITY           SKY/WX    TMP DP  RH WIND       PRES   REMARKS
GREELEY ARPT   CLOUDY    52  46  82 N7        29.81F
AKRON          CLOUDY    53  53 100 E18G31    29.74F
BURLINGTON     LGT RAIN  55  52  89 SE17      29.76S
WRAY           LGT RAIN N/A N/A N/A E18G24    29.77F
STERLING       DRIZZLE   54  54 100 E12G18    29.76F
HOLYOKE        NOT AVBL
FORT MORGAN    DRIZZLE   53  51  95 NE12      29.76F
$$

COZ086-089-092>099-060300-
...SOUTHEAST COLORADO...

CITY           SKY/WX    TMP DP  RH WIND       PRES   REMARKS
PUEBLO         CLOUDY    53  48  83 NW5       29.76F
LA JUNTA       CLOUDY    57  53  86 W7        29.74F
LAMAR          CLOUDY    58  53  84 SW13      29.74R
SPRINGFIELD      N/A     52  47  83 NW5       29.79R
$$


USA.gov is the U.S. government's official web portal to all federal, state and local government web resources and services.